Location: Aiyede
(8.4833°N, 4.4500°E)
Time: 13:40:19
(UTC+00:00)

Envisat - Pass Details

Date: 26 November 2020
Orbit: 764 x 766 km, 98.1° (Epoch: 18 January)

Event Time Altitude Azimuth Distance (km) Brightness Sun altitude
Rises 05:14:00 0° 13° (NNE) 3,219 6.1 -6.6°
Reaches altitude 10° 05:16:18 10° 13° (NNE) 2,293 5.4 -6.1°
Maximum altitude 05:21:22 84° 102° (ESE) 770 3.1 -4.9°
Drops below altitude 10° 05:26:26 10° 190° (S) 2,295 5.6 -3.8°
Sets 05:28:44 0° 191° (S) 3,221 6.4 -3.2°
